Location: Hilton Head Island
(32.2163°N, 80.7526°W)
Time: 00:39:16
(UTC-05:00)

Vanguard 1 - Pass Details

Date: 18 February 2026
Orbit: 653 x 3818 km, 34.2° (Epoch: 5 March)

Event Time Altitude Azimuth Distance (km) Brightness Sun altitude
Rises 23:46:55 0° 286° (WNW) 7,616 14.8 -66.4°
Reaches altitude 10° 23:53:07 10° 276° (W) 6,810 14.4 -67.1°
Enters shadow 00:03:23 24° 252° (WSW) 5,768 13.8 -68.0°
Maximum altitude 00:10:27 28° 228° (SW) 5,392 - -68.5°
Drops below altitude 10° 00:25:54 10° 177° (S) 5,958 - -69.2°
Sets 00:31:00 0° 166° (SSE) 6,545 - -69.4°
